Bowling Green, Kentucky, United States (42101)
Lat: 36.99N, Lon: 86.44W
Wx Zone: KYZ071
Local Info
Past Weather Observations for Today

NOTE: This archive is for the closest National Weather Service station to Bowling Green. Information may differ from the station used for current weather conditions.

Click here for Long-term Archive

Time Weather Temperature Dewpoint Humidity Pressure Winds Precip Visibility
17:15
Clear
Thunder Storms
75°F / 24°C 72°F / 22°C 89% 29.98 in
(1015 mb)
SSE 3.5 mph
(SSE 6 kph)
- 10SM
16:55
Clear
77°F / 25°C 70°F / 21°C 79% 29.98 in
(1015 mb)
SW 4.6 mph
(SW 7 kph)
- 10SM
16:35
Clear
Thunder Storms
79°F / 26°C 70°F / 21°C 74% 29.95 in
(1014 mb)
SW 5.8 mph
(SW 9 kph)
- 10SM
16:15
Clear
79°F / 26°C 70°F / 21°C 74% 29.95 in
(1014 mb)
SW 4.6 mph
(SW 7 kph)
- 10SM
15:55
Partly Cloudy
77°F / 25°C 70°F / 21°C 79% 29.95 in
(1014 mb)
SW 3.5 mph
(SW 6 kph)
- 10SM
15:35
Mostly Cloudy
75°F / 24°C 70°F / 21°C 83% 29.98 in
(1015 mb)
SW 3.5 mph
(SW 6 kph)
- 10SM
15:15
Partly Cloudy
Thunder Storms
75°F / 24°C 72°F / 22°C 89% 29.98 in
(1015 mb)
SW 6.9 mph
(SW 11 kph)
- 10SM
14:55
Partly Cloudy
75°F / 24°C 72°F / 22°C 89% 29.95 in
(1014 mb)
Calm - 10SM
14:35
Partly Cloudy
75°F / 24°C 72°F / 22°C 89% 29.98 in
(1015 mb)
Calm - 10SM
14:15
Mostly Cloudy
Thunder Storms
73°F / 23°C 70°F / 21°C 89% 29.98 in
(1015 mb)
Calm - 10SM
13:55
Thunder Storms
72°F / 22°C 72°F / 22°C 100% 29.98 in
(1015 mb)
S 4.6 mph
(S 7 kph)
- 10SM
13:40
Thunder Storms
N/A N/A N/A 29.98 in
(1015 mb)
S 4.6 mph
(S 7 kph)
-
13:15
Overcast
Thunder Storms
82°F / 28°C 72°F / 22°C 70% 30.01 in
(1016 mb)
W 17.3 mph
(W 28 kph)
0.03 in
(0.76 mm)
5SM
12:55
Mostly Cloudy
86°F / 30°C 72°F / 22°C 62% 29.98 in
(1015 mb)
SSW 10.4 mph
(SSW 17 kph)
- 10SM
12:35
Mostly Cloudy
88°F / 31°C 72°F / 22°C 59% 29.98 in
(1015 mb)
SW 13.8 mph
(SW 22 kph)
- 10SM
12:15
Mostly Cloudy
88°F / 31°C 72°F / 22°C 59% 29.98 in
(1015 mb)
SW 12.7 mph
(SW 20 kph)
- 10SM
11:55
Mostly Cloudy
86°F / 30°C 72°F / 22°C 62% 30.01 in
(1016 mb)
SW 10.4 mph
(SW 17 kph)
- 10SM
11:35
Mostly Cloudy
86°F / 30°C 72°F / 22°C 62% 30.01 in
(1016 mb)
SW 13.8 mph
(SW 22 kph)
- 10SM
11:15
Partly Cloudy
86°F / 30°C 72°F / 22°C 62% 30.01 in
(1016 mb)
SW 13.8 mph
(SW 22 kph)
- 10SM
10:55
Mostly Cloudy
86°F / 30°C 72°F / 22°C 62% 30.01 in
(1016 mb)
SSW 11.5 mph
(SSW 19 kph)
- 10SM
10:35
Mostly Cloudy
86°F / 30°C 72°F / 22°C 62% 30.01 in
(1016 mb)
SSW 9.2 mph
(SSW 15 kph)
- 10SM
10:15
Partly Cloudy
84°F / 29°C 72°F / 22°C 66% 30.01 in
(1016 mb)
SSW 10.4 mph
(SSW 17 kph)
- 10SM
09:55
Partly Cloudy
84°F / 29°C 72°F / 22°C 66% 30.04 in
(1017 mb)
SSW 10.4 mph
(SSW 17 kph)
- 10SM
09:35
Clear
84°F / 29°C 72°F / 22°C 66% 30.04 in
(1017 mb)
SW 11.5 mph
(SW 19 kph)
- 10SM
09:15
Clear
82°F / 28°C 72°F / 22°C 70% 30.04 in
(1017 mb)
SW 12.7 mph
(SW 20 kph)
- 10SM
08:55
Partly Cloudy
82°F / 28°C 70°F / 21°C 66% 30.04 in
(1017 mb)
SW 10.4 mph
(SW 17 kph)
- 10SM
08:35
Mostly Cloudy
81°F / 27°C 70°F / 21°C 70% 30.04 in
(1017 mb)
SW 6.9 mph
(SW 11 kph)
- 10SM
08:15
Partly Cloudy
81°F / 27°C 70°F / 21°C 70% 30.04 in
(1017 mb)
SW 5.8 mph
(SW 9 kph)
- 10SM
07:55
Clear
79°F / 26°C 70°F / 21°C 74% 30.04 in
(1017 mb)
SW 6.9 mph
(SW 11 kph)
- 10SM
07:35
Clear
77°F / 25°C 70°F / 21°C 79% 30.04 in
(1017 mb)
SW 8.1 mph
(SW 13 kph)
- 10SM
07:15
Clear
77°F / 25°C 70°F / 21°C 79% 30.04 in
(1017 mb)
SW 9.2 mph
(SW 15 kph)
- 10SM
06:55
Clear
75°F / 24°C 68°F / 20°C 78% 30.04 in
(1017 mb)
SW 6.9 mph
(SW 11 kph)
- 10SM
06:35
Clear
77°F / 25°C 68°F / 20°C 74% 30.04 in
(1017 mb)
SW 6.9 mph
(SW 11 kph)
- 10SM
06:15
Clear
75°F / 24°C 68°F / 20°C 78% 30.04 in
(1017 mb)
SW 6.9 mph
(SW 11 kph)
- 10SM
05:55
Clear
75°F / 24°C 68°F / 20°C 78% 30.04 in
(1017 mb)
S 3.5 mph
(S 6 kph)
- 10SM
05:35
Clear
73°F / 23°C 68°F / 20°C 83% 30.04 in
(1017 mb)
SW 4.6 mph
(SW 7 kph)
- 10SM
05:15
Clear
73°F / 23°C 68°F / 20°C 83% 30.04 in
(1017 mb)
SW 5.8 mph
(SW 9 kph)
- 10SM
04:55
Partly Cloudy
72°F / 22°C 68°F / 20°C 88% 30.04 in
(1017 mb)
SW 3.5 mph
(SW 6 kph)
- 10SM
04:35
Partly Cloudy
73°F / 23°C 68°F / 20°C 83% 30.04 in
(1017 mb)
SW 3.5 mph
(SW 6 kph)
- 10SM
04:15
Clear
73°F / 23°C 68°F / 20°C 83% 30.04 in
(1017 mb)
SW 3.5 mph
(SW 6 kph)
- 10SM
03:55
Clear
73°F / 23°C 68°F / 20°C 83% 30.04 in
(1017 mb)
SW 4.6 mph
(SW 7 kph)
- 10SM
03:35
Clear
73°F / 23°C 68°F / 20°C 83% 30.04 in
(1017 mb)
SW 5.8 mph
(SW 9 kph)
- 10SM
03:15
Clear
73°F / 23°C 68°F / 20°C 83% 30.04 in
(1017 mb)
SSE 4.6 mph
(SSE 7 kph)
- 10SM
02:55
Clear
73°F / 23°C 68°F / 20°C 83% 30.01 in
(1016 mb)
Calm - 10SM
02:35
Clear
73°F / 23°C 66°F / 19°C 78% 30.04 in
(1017 mb)
Calm - 10SM
02:15
Clear
73°F / 23°C 66°F / 19°C 78% 30.01 in
(1016 mb)
S 4.6 mph
(S 7 kph)
- 10SM
01:55
Clear
73°F / 23°C 66°F / 19°C 78% 30.01 in
(1016 mb)
S 3.5 mph
(S 6 kph)
- 10SM
01:35
Clear
73°F / 23°C 66°F / 19°C 78% 30.04 in
(1017 mb)
Calm - 10SM
01:15
Clear
73°F / 23°C 66°F / 19°C 78% 30.04 in
(1017 mb)
Calm - 10SM
00:55
Clear
73°F / 23°C 66°F / 19°C 78% 30.04 in
(1017 mb)
Calm - 10SM
00:35
Clear
73°F / 23°C 68°F / 20°C 83% 30.04 in
(1017 mb)
Calm - 10SM
00:15
Clear
73°F / 23°C 68°F / 20°C 83% 30.04 in
(1017 mb)
Calm - 10SM
Time Weather Temperature Dewpoint Humidity Pressure Winds Precip Visibility


Weather for websites

WeatherForYou.com, LLC is not responsible for any damages or problems caused by this service. Current weather conditions are obtained from the closest station including government and personal stations which may have varying degrees of accuracy. Weather forecasts are derived from the NOAA NDFD. Like all things, this site belongs to Jesus Christ... He just trusts me to maintain it. If you have any questions or comments email webmaster@weatherforyou.com

Copyright © 2014, WeatherForYou.com LLC. All rights reserved.